Location: Chippewa Lake
(41.0698°N, 81.9010°W)
Time: 01:53:21
(UTC+00:00)

Spot 2 Rocket - Pass Details

Date: 09 May 2021
Orbit: 758 x 771 km, 98.5° (Epoch: 24 June)

Event Time Altitude Azimuth Distance (km) Brightness Sun altitude
Exits shadow 03:14:54 42° 214° (SW) 1,076 4.0 -24.3°
Maximum altitude 03:16:09 53° 260° (W) 935 4.0 -24.4°
Drops below altitude 10° 03:21:06 10° 337° (NNW) 2,298 7.0 -24.9°
Sets 03:23:28 0° 342° (NNW) 3,227 8.0 -25.2°
